Location: Edinburgh
(55.9500°N, 3.1600°W)
Time: 07:23:40
(UTC+01:00)

ISS - Pass Details

Date: 10 October 2017
Orbit: 401 x 408 km, 51.6° (Epoch: 22 October)

Event Time Altitude Azimuth Distance (km) Brightness Sun altitude
Rises 20:03:17 0° 272° (W) 2,328 1.9 -14.6°
Reaches altitude 10° 20:05:41 10° 255° (WSW) 1,467 0.1 -15.0°
Maximum altitude 20:08:12 20° 205° (SSW) 993 -1.7 -15.3°
Enters shadow 20:09:58 14° 165° (SSE) 1,249 -1.6 -15.6°
